[[{"header":{"parameterUnit":"m.s-1","parameterCategory":2,"la1":30.2991,"la2":30.254,"lo1":-89.0895,"lo2":-89.0444,"dy":0.0017,"dx":0.0017,"nx":28,"ny":28,"refTime":"2024-05-27T21:00:00:Z","depth":"0","parameterNumber":2,"parameterNumberName":"U-component_of_CURRENTS"},"data":[0,0,0,0,0,0,0,0,0,0,0,0,0,0,0,0,0,0,0,0,0,0,0,0,0,0,0,0,0,0,0,0,0,0,0,0,0,0,0,0,0,0,0,0,0,0,0,0,0,0,0,0,0,0,0,0,0,0,-0.3063,-0.3063,0,-0.3024,-0.3023,-0.3021,-0.2876,-0.2874,-0.2872,-0.287,-0.2768,-0.2768,-0.2767,0,0,0,0,0,0,0,0,0,0,0,0,0,-0.2871,-0.2875,-0.3063,-0.3063,-0.3064,-0.3024,-0.3023,-0.3021,-0.2877,-0.2874,-0.2871,-0.2869,-0.2768,-0.2768,-0.2767,0,0,0,0,0,0,0,0,0,0,0,0,0,-0.2895,-0.2877,-0.3063,-0.2996,-0.299,-0.3025,-0.3023,-0.3021,-0.2877,-0.2874,-0.2871,-0.2868,-0.2769,-0.2768,-0.2767,-0.2828,0,0,-0.2764,-0.2764,0,0,0,0,0,0,0,0,-0.2894,-0.2901,-0.3005,-0.3,-0.2994,-0.2962,-0.2918,-0.2957,-0.2878,-0.2908,-0.287,-0.2866,-0.2837,-0.283,-0.2815,-0.2824,-0.2819,-0.2764,-0.2763,-0.2763,-0.2763,0,0,0,0,0,0,0,-0.2893,-0.2901,-0.3035,-0.3006,-0.3,-0.292,-0.292,-0.2924,-0.2882,-0.2905,-0.2897,-0.2913,-0.2832,-0.2816,-0.2812,-0.2818,-0.2764,-0.2763,-0.2762,-0.2762,-0.2845,-0.2848,0,0,0,0,0,0,-0.2933,-0.2901,-0.3037,-0.3036,-0.2948,-0.2928,-0.2927,-0.2966,-0.2883,-0.2871,-0.2916,-0.2906,-0.2819,-0.2813,-0.2808,-0.2856,-0.2763,-0.2762,-0.2761,-0.2843,-0.2846,-0.2849,0,0,0,0,0,0,-0.293,-0.2947,-0.3039,-0.2974,-0.2981,-0.2937,-0.2981,-0.2968,-0.2947,-0.2894,-0.2877,-0.2909,-0.2816,-0.2809,-0.2815,-0.2851,-0.2762,-0.2761,-0.2839,-0.2844,-0.2848,-0.2966,0,0,0,0,0,0,-0.2925,-0.2946,-0.2975,-0.2979,-0.2987,-0.3081,-0.2985,-0.297,-0.2967,-0.2954,-0.2884,-0.287,-0.2813,-0.2817,-0.2814,-0.2848,-0.276,-0.2836,-0.2841,-0.2846,-0.2958,-0.2973,-0.2986,0,0,0,0,0,-0.2918,-0.2996,-0.2977,-0.2993,-0.3034,-0.3085,-0.3081,-0.3027,-0.2971,-0.2988,-0.293,-0.2872,-0.2847,-0.2819,-0.2815,-0.285,-0.2833,-0.284,-0.2846,-0.2952,-0.297,-0.2986,0,0,0,0,0,0,-0.2935,-0.299,-0.2968,-0.3059,-0.3075,-0.3065,-0.3084,-0.3047,-0.3014,-0.299,-0.2912,-0.2898,-0.2917,-0.2882,-0.2853,-0.2892,-0.2831,-0.2837,-0.2913,-0.293,-0.2944,-0.293,-0.2759,0,0,0,0,0,-0.2957,-0.3021,-0.305,-0.3119,-0.3136,-0.3108,-0.3115,-0.3086,-0.3069,-0.3048,-0.2998,-0.2956,-0.2947,-0.2934,-0.292,-0.2951,-0.2912,-0.2972,-0.2986,-0.2998,-0.2987,-0.2999,-0.3012,-0.2869,-0.2869,-0.2869,0,0,-0.2976,-0.3023,-0.3051,-0.3124,-0.3125,-0.3159,-0.3101,-0.3137,-0.3142,-0.305,-0.3037,-0.301,-0.2969,-0.299,-0.2995,-0.2959,-0.3018,-0.3006,-0.3016,-0.2997,-0.3007,-0.302,-0.3032,-0.2874,-0.2873,-0.2872,0,0,-0.3053,-0.3097,-0.3159,-0.3185,-0.3221,-0.3214,-0.3233,-0.3229,-0.3204,-0.3215,-0.3145,-0.314,-0.312,-0.3092,-0.3077,-0.317,-0.3098,-0.3174,-0.3224,-0.3238,-0.3249,-0.3258,-0.3219,-0.3224,-0.3174,-0.3174,-0.3174,0,-0.3052,-0.3147,-0.3183,-0.3241,-0.3258,-0.3244,-0.3283,-0.3283,-0.3271,-0.3261,-0.3226,-0.3194,-0.3165,-0.3179,-0.3201,-0.3199,-0.3178,-0.316,-0.3254,-0.3263,-0.327,-0.3228,-0.3231,-0.318,-0.318,-0.3179,-0.3178,0,-0.3163,-0.3218,-0.3268,-0.3323,-0.3355,-0.3399,-0.341,-0.3422,-0.339,-0.3366,-0.3375,-0.3338,-0.3305,-0.3317,-0.3281,-0.3327,-0.3284,-0.3276,-0.3206,-0.3291,-0.3241,-0.3243,-0.3189,-0.3187,-0.3185,-0.3184,0,0,-0.316,-0.3308,-0.3309,-0.3339,-0.3392,-0.3431,-0.3469,-0.3491,-0.349,-0.3484,-0.3479,-0.3479,-0.3439,-0.3421,-0.339,-0.3402,-0.3438,-0.3364,-0.3362,-0.3314,-0.3435,-0.3196,-0.3174,-0.3453,-0.3455,-0.3456,-0.3375,0,-0.3196,-0.3331,-0.3382,-0.3453,-0.3505,-0.3514,-0.3544,-0.3563,-0.3552,-0.3551,-0.3532,-0.3521,-0.3488,-0.3471,-0.3485,-0.3447,-0.3449,-0.3457,-0.3367,-0.3363,-0.3133,-0.3171,-0.3027,-0.2925,-0.3376,-0.3376,-0.3376,0,-0.3241,-0.3328,-0.343,-0.351,-0.3529,-0.3563,-0.3591,-0.3618,-0.3628,-0.3616,-0.361,-0.358,-0.3584,-0.3553,-0.3525,-0.3533,-0.3492,-0.3464,-0.3461,-0.319,-0.3127,-0.2916,-0.291,-0.2896,-0.3378,-0.3378,-0.3378,0,-0.3208,-0.3334,-0.342,-0.345,-0.3551,-0.3575,-0.3606,-0.3627,-0.3629,-0.3652,-0.3638,-0.3642,-0.3611,-0.3604,-0.3503,-0.3538,-0.3448,-0.3489,-0.3233,-0.3215,-0.3044,-0.3006,-0.2996,-0.3481,-0.3481,-0.3482,-0.3482,0,-0.3212,-0.326,-0.3415,-0.3454,-0.3504,-0.3577,-0.3595,-0.3624,-0.3645,-0.3616,-0.3659,-0.3602,-0.3627,-0.3557,-0.3515,-0.3324,-0.3448,-0.3222,-0.3178,-0.3077,-0.3045,-0.298,-0.3027,-0.3479,-0.3479,-0.348,-0.348,0,-0.3138,-0.3255,-0.334,-0.3467,-0.3494,-0.3523,-0.3572,-0.3573,-0.3619,-0.3583,-0.3589,-0.3576,-0.3467,-0.3432,-0.337,-0.3275,-0.3088,-0.3072,-0.2906,-0.2842,-0.258,-0.2638,-0.2533,-0.2463,-0.2807,-0.2801,-0.2795,0,-0.3108,-0.3163,-0.3316,-0.3345,-0.3392,-0.3445,-0.3453,-0.353,-0.3526,-0.3509,-0.3476,-0.3394,-0.3245,-0.3048,-0.2913,-0.2768,-0.2823,-0.2534,-0.2571,-0.2513,-0.2552,-0.2615,-0.2573,-0.2411,-0.2403,-0.2396,-0.2391,0,-0.301,-0.3082,-0.3159,-0.3232,-0.3268,-0.3285,-0.3319,-0.3297,-0.3342,-0.33,-0.3169,-0.3058,-0.2886,-0.2623,-0.2432,-0.2345,-0.2458,-0.2385,-0.2414,-0.2284,-0.2272,-0.2198,-0.2498,-0.2332,-0.2337,-0.2342,-0.2345,-0.2347,-0.2892,-0.2924,-0.3031,-0.307,-0.3099,-0.3044,-0.2945,-0.2968,-0.2871,-0.2696,-0.277,-0.252,-0.2416,-0.211,-0.2019,-0.1835,-0.199,-0.1795,-0.1883,-0.1962,-0.1848,-0.1951,-0.1672,-0.1674,-0.1676,-0.1677,-0.1679,0,-0.2705,-0.2778,-0.2838,-0.2852,-0.2761,-0.285,-0.2775,-0.2612,-0.237,-0.2294,-0.2117,-0.1922,-0.1695,-0.1664,-0.1508,-0.1401,-0.1448,-0.138,-0.1527,-0.1519,-0.1675,-0.1608,-0.1193,-0.1193,-0.1193,-0.1193,-0.1193,-0.1193,-0.2607,-0.2615,-0.2672,-0.2491,-0.2457,-0.2223,-0.2093,-0.1914,-0.1795,-0.1474,-0.1337,-0.1301,-0.1376,-0.146,-0.1342,-0.1264,-0.1312,-0.1207,-0.1294,-0.1505,-0.1555,-0.1603,-0.1551,-0.1132,-0.1132,-0.1082,-0.1082,-0.1082]},{"header":{"parameterUnit":"m.s-1","parameterCategory":2,"la1":30.2991,"la2":30.254,"lo1":-89.0895,"lo2":-89.0444,"dy":0.0017,"dx":0.0017,"nx":28,"ny":28,"refTime":"2024-05-27T21:00:00:Z","depth":"0","parameterNumber":3,"parameterNumberName":"V-component_of_CURRENTS"},"data":[0,0,0,0,0,0,0,0,0,0,0,0,0,0,0,0,0,0,0,0,0,0,0,0,0,0,0,0,0,0,0,0,0,0,0,0,0,0,0,0,0,0,0,0,0,0,0,0,0,0,0,0,0,0,0,0,0,0,-0.0813,-0.0814,0,-0.0899,-0.09,-0.0901,-0.0868,-0.0867,-0.0865,-0.0864,-0.0761,-0.0759,-0.0758,0,0,0,0,0,0,0,0,0,0,0,0,0,-0.0569,-0.0574,-0.0813,-0.0814,-0.0816,-0.0899,-0.09,-0.0901,-0.0869,-0.0867,-0.0865,-0.0863,-0.0761,-0.076,-0.0758,0,0,0,0,0,0,0,0,0,0,0,0,0,-0.0663,-0.0575,-0.0812,-0.0813,-0.0814,-0.0899,-0.09,-0.0901,-0.0869,-0.0867,-0.0864,-0.0862,-0.0762,-0.076,-0.0758,-0.0793,0,0,-0.0752,-0.0751,0,0,0,0,0,0,0,0,-0.0658,-0.0672,-0.0811,-0.0813,-0.0815,-0.0874,-0.0777,-0.0857,-0.087,-0.0844,-0.0864,-0.0861,-0.0786,-0.0782,-0.08,-0.0788,-0.0784,-0.0752,-0.0751,-0.075,-0.0749,0,0,0,0,0,0,0,-0.0652,-0.0668,-0.0842,-0.0813,-0.0815,-0.0792,-0.0803,-0.0792,-0.082,-0.0846,-0.0845,-0.0862,-0.0784,-0.0802,-0.0797,-0.0782,-0.0752,-0.075,-0.0749,-0.0748,-0.0726,-0.0726,0,0,0,0,0,0,-0.0656,-0.0663,-0.084,-0.0846,-0.0734,-0.0799,-0.081,-0.0854,-0.0824,-0.082,-0.0864,-0.086,-0.0806,-0.0799,-0.0793,-0.0793,-0.075,-0.0748,-0.0747,-0.0725,-0.0726,-0.0726,0,0,0,0,0,0,-0.0651,-0.0672,-0.0836,-0.0757,-0.0777,-0.0806,-0.0855,-0.0857,-0.0873,-0.0841,-0.0832,-0.0877,-0.0804,-0.0795,-0.0779,-0.0789,-0.0747,-0.0745,-0.0724,-0.0725,-0.0726,-0.0817,0,0,0,0,0,0,-0.0644,-0.0671,-0.07,-0.0759,-0.0782,-0.0896,-0.0858,-0.0861,-0.089,-0.0885,-0.085,-0.0838,-0.0802,-0.0782,-0.0777,-0.0786,-0.0744,-0.0724,-0.0725,-0.0726,-0.0814,-0.0821,-0.0828,0,0,0,0,0,-0.0636,-0.0711,-0.0702,-0.0723,-0.0824,-0.0898,-0.0908,-0.0916,-0.0893,-0.0917,-0.0879,-0.0839,-0.0784,-0.0782,-0.0776,-0.0784,-0.0723,-0.0724,-0.0726,-0.0811,-0.082,-0.0828,0,0,0,0,0,0,-0.0633,-0.0717,-0.0707,-0.0805,-0.0842,-0.0894,-0.0932,-0.0927,-0.0924,-0.0909,-0.0858,-0.0846,-0.0832,-0.08,-0.0799,-0.0778,-0.0743,-0.0743,-0.081,-0.0818,-0.0825,-0.0845,-0.0742,0,0,0,0,0,-0.0644,-0.0716,-0.077,-0.0846,-0.0869,-0.0894,-0.0923,-0.0928,-0.0938,-0.0936,-0.0902,-0.0862,-0.0839,-0.082,-0.0796,-0.0796,-0.0741,-0.0792,-0.0799,-0.0805,-0.0816,-0.0774,-0.0779,-0.073,-0.073,-0.073,0,0,-0.0661,-0.0721,-0.0757,-0.0847,-0.0878,-0.0929,-0.0906,-0.0966,-0.0985,-0.0923,-0.0927,-0.0891,-0.0845,-0.0839,-0.0829,-0.0809,-0.0779,-0.0807,-0.0813,-0.082,-0.0776,-0.078,-0.0785,-0.0731,-0.0731,-0.0731,0,0,-0.0747,-0.0786,-0.0868,-0.09,-0.0959,-0.0971,-0.0987,-0.1026,-0.1018,-0.103,-0.0977,-0.0952,-0.0921,-0.0888,-0.0868,-0.0902,-0.0822,-0.0885,-0.0935,-0.0895,-0.0898,-0.0901,-0.0792,-0.0785,-0.0885,-0.0885,-0.0885,0,-0.0753,-0.087,-0.0899,-0.0973,-0.1002,-0.099,-0.1052,-0.1056,-0.1072,-0.1063,-0.1036,-0.0987,-0.0947,-0.0933,-0.094,-0.0918,-0.086,-0.091,-0.0905,-0.0907,-0.0908,-0.0796,-0.0786,-0.089,-0.0889,-0.0889,-0.0888,0,-0.0896,-0.0964,-0.1018,-0.1093,-0.1122,-0.1183,-0.118,-0.1185,-0.116,-0.1147,-0.1126,-0.1077,-0.1042,-0.1025,-0.0996,-0.0985,-0.0925,-0.0923,-0.0888,-0.0919,-0.0797,-0.0786,-0.0896,-0.0895,-0.0893,-0.0892,0,0,-0.0959,-0.109,-0.1103,-0.1146,-0.1186,-0.1236,-0.1247,-0.1264,-0.1265,-0.1239,-0.1235,-0.1196,-0.1152,-0.1126,-0.1076,-0.1044,-0.0988,-0.0996,-0.0992,-0.0893,-0.0845,-0.0711,-0.0684,-0.0991,-0.0991,-0.0991,-0.0739,0,-0.1047,-0.1214,-0.1237,-0.1338,-0.1407,-0.1374,-0.1391,-0.1385,-0.1345,-0.1326,-0.1261,-0.1235,-0.1192,-0.1171,-0.1136,-0.1024,-0.097,-0.1052,-0.0824,-0.0816,-0.07,-0.0673,-0.0598,-0.0362,-0.0727,-0.0725,-0.0724,0,-0.1176,-0.1262,-0.1398,-0.1467,-0.149,-0.1525,-0.1528,-0.1538,-0.1481,-0.145,-0.1398,-0.1325,-0.1253,-0.1227,-0.105,-0.1103,-0.0989,-0.0903,-0.0891,-0.0734,-0.0663,-0.0398,-0.0327,-0.0167,-0.0705,-0.0707,-0.0708,0,-0.1247,-0.137,-0.1483,-0.151,-0.1578,-0.1602,-0.1614,-0.1577,-0.1567,-0.1511,-0.1472,-0.1386,-0.1302,-0.1193,-0.0977,-0.102,-0.076,-0.0791,-0.0555,-0.054,-0.0415,-0.0391,-0.0172,-0.0686,-0.0687,-0.0687,-0.0688,0,-0.1356,-0.1439,-0.1526,-0.159,-0.1674,-0.1681,-0.172,-0.1714,-0.1666,-0.1617,-0.1536,-0.1445,-0.1296,-0.1109,-0.097,-0.068,-0.0737,-0.0543,-0.0475,-0.0437,-0.0419,-0.0225,-0.0183,-0.0678,-0.068,-0.0682,-0.0683,0,-0.1444,-0.1509,-0.1628,-0.1707,-0.1726,-0.1783,-0.1795,-0.1798,-0.1747,-0.1669,-0.1645,-0.1465,-0.1203,-0.1002,-0.0754,-0.0619,-0.0264,-0.0293,-0.0214,-0.0144,0.0187,0.022,0.0523,0.0636,-0.0006,-0.0002,0.0002,0,-0.1522,-0.1601,-0.1713,-0.1761,-0.1801,-0.1859,-0.1877,-0.1854,-0.1811,-0.1642,-0.1583,-0.133,-0.1094,-0.0657,-0.0384,-0.0071,-0.0015,0.0158,0.0062,0.0245,0.033,0.0339,0.0409,0.0223,0.0228,0.0233,0.0236,0,-0.1632,-0.1668,-0.1759,-0.1856,-0.1901,-0.1924,-0.1922,-0.1886,-0.1783,-0.1685,-0.1443,-0.1247,-0.079,-0.0376,0.0021,0.018,0.0301,0.026,0.0408,0.0503,0.0568,0.0696,0.0062,0.0276,0.0272,0.0269,0.0267,0.0265,-0.1686,-0.1766,-0.1867,-0.1942,-0.1971,-0.1923,-0.1877,-0.1805,-0.169,-0.1424,-0.1302,-0.0926,-0.0406,0.0178,0.0378,0.0784,0.0673,0.0846,0.0874,0.087,0.0961,0.0454,0.0753,0.0752,0.0751,0.075,0.0749,0,-0.1738,-0.1828,-0.1931,-0.1975,-0.1948,-0.1957,-0.1851,-0.1723,-0.1504,-0.1258,-0.1007,-0.0366,0.0162,0.0604,0.1152,0.1363,0.1366,0.1433,0.143,0.1471,0.1006,0.0996,0.141,0.141,0.1409,0.1409,0.1409,0.1409,-0.1766,-0.1889,-0.1944,-0.1919,-0.1903,-0.1773,-0.1663,-0.147,-0.1249,-0.0777,-0.0383,-0.0095,0.0487,0.1303,0.1791,0.1827,0.1976,0.1979,0.2048,0.168,0.1625,0.1572,0.1573,0.2102,0.2103,0.25,0.2504,0.2507]}],[{"header":{"parameterUnit":"m.s-1","parameterCategory":2,"la1":30.2991,"la2":30.254,"lo1":-89.0895,"lo2":-89.0444,"dy":0.0017,"dx":0.0017,"nx":28,"ny":28,"refTime":"2024-05-27T21:00:00:Z","depth":"2","parameterNumber":2,"parameterNumberName":"U-component_of_CURRENTS"},"data":[0,0,0,0,0,0,0,0,0,0,0,0,0,0,0,0,0,0,0,0,0,0,0,0,0,0,0,0,0,0,0,0,0,0,0,0,0,0,0,0,0,0,0,0,0,0,0,0,0,0,0,0,0,0,0,0,0,0,-0.1716,-0.1716,0,-0.1709,-0.171,-0.171,-0.1693,-0.1692,-0.1692,-0.1691,-0.1698,-0.1698,-0.1699,0,0,0,0,0,0,0,0,0,0,0,0,0,-0.1756,-0.1755,-0.1716,-0.1716,-0.1715,-0.1709,-0.171,-0.171,-0.1693,-0.1692,-0.1691,-0.1691,-0.1697,-0.1698,-0.1699,0,0,0,0,0,0,0,0,0,0,0,0,0,-0.1745,-0.1755,-0.1716,-0.1704,-0.1703,-0.1709,-0.171,-0.171,-0.1693,-0.1692,-0.1691,-0.169,-0.1697,-0.1698,-0.1699,-0.1724,0,0,-0.1703,-0.1703,0,0,0,0,0,0,0,0,-0.1746,-0.1744,-0.1706,-0.1705,-0.1704,-0.1699,-0.1726,-0.1714,-0.1693,-0.1699,-0.1691,-0.169,-0.1698,-0.1699,-0.1703,-0.1724,-0.1725,-0.1703,-0.1703,-0.1704,-0.1704,0,0,0,0,0,0,0,-0.1746,-0.1744,-0.1716,-0.1706,-0.1704,-0.1713,-0.1711,-0.1724,-0.1706,-0.1699,-0.1697,-0.1692,-0.1698,-0.1702,-0.1703,-0.1725,-0.1703,-0.1704,-0.1704,-0.1705,-0.182,-0.1823,0,0,0,0,0,0,-0.1741,-0.1745,-0.1716,-0.1715,-0.172,-0.1713,-0.171,-0.1703,-0.1706,-0.1704,-0.1693,-0.1692,-0.1701,-0.1702,-0.1704,-0.1793,-0.1704,-0.1705,-0.1705,-0.1818,-0.1821,-0.1824,0,0,0,0,0,0,-0.1741,-0.1738,-0.1716,-0.1728,-0.1726,-0.1713,-0.1705,-0.1704,-0.1718,-0.1701,-0.17,-0.171,-0.17,-0.1702,-0.1744,-0.179,-0.1705,-0.1706,-0.1815,-0.1819,-0.1822,-0.1933,0,0,0,0,0,0,-0.1743,-0.1738,-0.1729,-0.1728,-0.1725,-0.1753,-0.1706,-0.1704,-0.1714,-0.1713,-0.1715,-0.1714,-0.17,-0.1743,-0.1745,-0.179,-0.1707,-0.1812,-0.1817,-0.1821,-0.1926,-0.194,-0.1951,0,0,0,0,0,-0.1744,-0.1745,-0.1728,-0.1724,-0.1712,-0.1755,-0.1757,-0.1745,-0.1716,-0.1749,-0.1744,-0.1714,-0.1773,-0.1746,-0.1748,-0.1795,-0.181,-0.1816,-0.1821,-0.192,-0.1937,-0.1951,0,0,0,0,0,0,-0.1757,-0.1743,-0.1725,-0.1719,-0.1747,-0.1752,-0.1764,-0.1758,-0.1778,-0.1764,-0.1748,-0.1749,-0.1796,-0.1787,-0.1757,-0.1842,-0.1785,-0.1792,-0.186,-0.1876,-0.1888,-0.1894,-0.1708,0,0,0,0,0,-0.1754,-0.1744,-0.1755,-0.175,-0.1766,-0.1767,-0.1776,-0.1774,-0.1788,-0.1794,-0.1811,-0.1813,-0.182,-0.1841,-0.1847,-0.1905,-0.1864,-0.1935,-0.1948,-0.1959,-0.1966,-0.1945,-0.1956,-0.1841,-0.1841,-0.1841,0,0,-0.1745,-0.1742,-0.1729,-0.1751,-0.1761,-0.1808,-0.1772,-0.1798,-0.1829,-0.1793,-0.1855,-0.1855,-0.1842,-0.1898,-0.192,-0.19,-0.1972,-0.1966,-0.1975,-0.1976,-0.1952,-0.1963,-0.1972,-0.1845,-0.1844,-0.1844,0,0,-0.1761,-0.174,-0.1754,-0.1781,-0.1807,-0.1831,-0.1847,-0.1884,-0.1893,-0.1955,-0.1921,-0.1961,-0.1999,-0.2005,-0.2003,-0.2094,-0.2028,-0.2097,-0.2181,-0.2162,-0.2171,-0.2178,-0.2141,-0.2144,-0.2117,-0.2117,-0.2117,0,-0.1757,-0.1765,-0.1771,-0.181,-0.1817,-0.1852,-0.1884,-0.1923,-0.1972,-0.1987,-0.1991,-0.2043,-0.2049,-0.2081,-0.2129,-0.2123,-0.2089,-0.2123,-0.2177,-0.2183,-0.2188,-0.2148,-0.215,-0.2123,-0.2123,-0.2122,-0.2121,0,-0.1791,-0.1801,-0.1822,-0.1873,-0.1901,-0.1935,-0.1981,-0.2043,-0.2068,-0.2097,-0.215,-0.2169,-0.2194,-0.2218,-0.2211,-0.2258,-0.2213,-0.2181,-0.2133,-0.2206,-0.216,-0.216,-0.2132,-0.213,-0.2128,-0.2126,0,0,-0.177,-0.183,-0.1835,-0.1856,-0.1918,-0.1953,-0.2026,-0.2096,-0.2147,-0.2215,-0.2258,-0.2316,-0.2323,-0.2322,-0.2314,-0.2338,-0.2368,-0.2299,-0.2295,-0.2254,-0.2309,-0.2208,-0.2197,-0.2339,-0.234,-0.234,-0.2261,0,-0.1794,-0.1853,-0.1876,-0.1943,-0.1973,-0.2019,-0.2097,-0.216,-0.2217,-0.2297,-0.231,-0.2359,-0.2356,-0.2376,-0.2397,-0.2364,-0.2372,-0.2391,-0.2252,-0.2248,-0.2142,-0.2195,-0.205,-0.1961,-0.226,-0.226,-0.226,0,-0.1811,-0.1845,-0.1885,-0.1963,-0.1984,-0.2055,-0.2147,-0.2211,-0.2318,-0.235,-0.2393,-0.2409,-0.245,-0.2438,-0.2412,-0.2419,-0.2382,-0.2362,-0.2357,-0.2222,-0.2146,-0.1938,-0.1948,-0.2258,-0.2259,-0.2259,-0.2259,0,-0.177,-0.185,-0.187,-0.1887,-0.1998,-0.2045,-0.213,-0.2237,-0.2276,-0.2376,-0.2408,-0.2448,-0.2448,-0.243,-0.2385,-0.2404,-0.2333,-0.2336,-0.2203,-0.2194,-0.2022,-0.1996,-0.2316,-0.2316,-0.2316,-0.2317,-0.2317,0,-0.1761,-0.1782,-0.1867,-0.1886,-0.1961,-0.2031,-0.2132,-0.2218,-0.2308,-0.2339,-0.2421,-0.2419,-0.245,-0.2411,-0.2382,-0.2267,-0.2307,-0.2221,-0.2172,-0.2057,-0.2036,-0.2255,-0.2249,-0.2314,-0.2314,-0.2315,-0.2315,0,-0.1664,-0.174,-0.1769,-0.1884,-0.1939,-0.1979,-0.2129,-0.2183,-0.2285,-0.2312,-0.2333,-0.2387,-0.2337,-0.2326,-0.2278,-0.2228,-0.2157,-0.21,-0.1956,-0.1893,-0.204,-0.2041,-0.1977,-0.1973,-0.1969,-0.1966,-0.1964,0,-0.1626,-0.1621,-0.1717,-0.1768,-0.1824,-0.1925,-0.1997,-0.2146,-0.2169,-0.2257,-0.2229,-0.2243,-0.2182,-0.208,-0.2021,-0.1929,-0.2015,-0.1752,-0.1783,-0.2049,-0.2009,-0.2015,-0.2021,-0.1597,-0.1592,-0.1588,-0.1585,0,-0.153,-0.154,-0.1575,-0.1644,-0.1736,-0.1793,-0.1901,-0.1928,-0.2045,-0.2057,-0.2021,-0.1996,-0.1937,-0.1787,-0.1708,-0.1645,-0.1768,-0.1661,-0.1954,-0.171,-0.1686,-0.1648,-0.1667,-0.1546,-0.155,-0.1553,-0.1555,-0.1557,-0.1456,-0.1438,-0.1484,-0.1527,-0.1617,-0.1629,-0.1647,-0.1711,-0.1721,-0.1707,-0.176,-0.1673,-0.1687,-0.1489,-0.1393,-0.1353,-0.1491,-0.1452,-0.1467,-0.1487,-0.1461,-0.1433,-0.124,-0.1242,-0.1244,-0.1245,-0.1247,0,-0.136,-0.1358,-0.1377,-0.1443,-0.1432,-0.1515,-0.1542,-0.1502,-0.1445,-0.1456,-0.1407,-0.1258,-0.1165,-0.1189,-0.1065,-0.1043,-0.1062,-0.1008,-0.1044,-0.1081,-0.1115,-0.1074,-0.0748,-0.0746,-0.0745,-0.0743,0,0,-0.1337,-0.1305,-0.1278,-0.1243,-0.1269,-0.1212,-0.1191,-0.1129,-0.1111,-0.1018,-0.0988,-0.108,-0.1133,-0.0936,-0.0895,-0.0797,-0.093,-0.0755,-0.1154,-0.1232,-0.1263,-0.1366,-0.1343,0,0,0,0,0]},{"header":{"parameterUnit":"m.s-1","parameterCategory":2,"la1":30.2991,"la2":30.254,"lo1":-89.0895,"lo2":-89.0444,"dy":0.0017,"dx":0.0017,"nx":28,"ny":28,"refTime":"2024-05-27T21:00:00:Z","depth":"2","parameterNumber":3,"parameterNumberName":"V-component_of_CURRENTS"},"data":[0,0,0,0,0,0,0,0,0,0,0,0,0,0,0,0,0,0,0,0,0,0,0,0,0,0,0,0,0,0,0,0,0,0,0,0,0,0,0,0,0,0,0,0,0,0,0,0,0,0,0,0,0,0,0,0,0,0,0.0058,0.0059,0,0.0118,0.0119,0.0119,0.0144,0.0144,0.0145,0.0145,0.0204,0.0205,0.0206,0,0,0,0,0,0,0,0,0,0,0,0,0,-0.0038,-0.0037,0.0058,0.0059,0.006,0.0118,0.0119,0.0119,0.0144,0.0144,0.0145,0.0145,0.0203,0.0205,0.0206,0,0,0,0,0,0,0,0,0,0,0,0,0,0.0008,-0.0036,0.0058,0.0082,0.0084,0.0118,0.0119,0.0119,0.0144,0.0144,0.0145,0.0145,0.0202,0.0205,0.0207,0.0217,0,0,0.0213,0.0214,0,0,0,0,0,0,0,0,0.0006,0.0012,0.0077,0.008,0.0083,0.0126,0.0106,0.0153,0.0144,0.0119,0.0145,0.0145,0.0179,0.0183,0.019,0.0219,0.0222,0.0214,0.0215,0.0216,0.0216,0,0,0,0,0,0,0,0.0002,0.0009,0.0079,0.0078,0.0082,0.0088,0.0095,0.0115,0.0145,0.0121,0.0124,0.0134,0.018,0.0188,0.0192,0.0223,0.0214,0.0215,0.0217,0.0218,0.028,0.028,0,0,0,0,0,0,0.0001,0.0006,0.0077,0.0081,0.0047,0.009,0.0097,0.011,0.0145,0.0151,0.0134,0.0135,0.0184,0.0189,0.0194,0.0218,0.0216,0.0218,0.0219,0.0279,0.028,0.028,0,0,0,0,0,0,-0.0002,0.0006,0.0075,0.0047,0.0056,0.0092,0.0106,0.0111,0.0118,0.0156,0.0161,0.0136,0.0185,0.0191,0.0207,0.022,0.0219,0.0221,0.0279,0.0279,0.028,0.0259,0,0,0,0,0,0,-0.0005,0.0005,0.0012,0.0047,0.0058,0.0085,0.0106,0.0112,0.0126,0.0128,0.0159,0.0165,0.0185,0.0204,0.0209,0.0223,0.0223,0.0278,0.0279,0.028,0.0259,0.0258,0.0258,0,0,0,0,0,-0.0008,0.0,0.0011,0.002,0.0067,0.0085,0.0091,0.0115,0.0126,0.0122,0.0146,0.0164,0.0212,0.0205,0.0212,0.0226,0.0278,0.0279,0.028,0.0259,0.0258,0.0258,0,0,0,0,0,0,-0.0039,0.0005,0.0018,0.004,0.0056,0.009,0.0095,0.0111,0.0127,0.0131,0.0162,0.0169,0.0188,0.0208,0.02,0.0247,0.0251,0.0253,0.0233,0.0233,0.0232,0.0227,0.0224,0,0,0,0,0,-0.0042,-0.0025,0.0011,0.0024,0.0033,0.0062,0.0073,0.0088,0.0111,0.0118,0.0142,0.0171,0.0197,0.0214,0.0234,0.0257,0.0278,0.0273,0.0273,0.0272,0.0273,0.0315,0.0319,0.0282,0.0282,0.0282,0,0,-0.0049,-0.0024,-0.0013,0.0019,0.0035,0.004,0.0068,0.0082,0.0088,0.0122,0.0135,0.0164,0.02,0.0225,0.0238,0.0244,0.0291,0.0273,0.0272,0.0273,0.0316,0.032,0.0323,0.0283,0.0283,0.0283,0,0,-0.007,-0.0035,-0.0036,-0.0024,0.0001,0.0023,0.0024,0.0055,0.0071,0.0087,0.0118,0.0155,0.0185,0.0224,0.0246,0.0256,0.0281,0.0263,0.0264,0.0305,0.0309,0.0312,0.0331,0.0336,0.027,0.027,0.027,0,-0.0085,-0.0077,-0.0037,-0.0042,-0.0036,0.0012,-0.0001,0.0027,0.0059,0.0075,0.0085,0.0155,0.0189,0.0235,0.0245,0.0257,0.0272,0.0262,0.0305,0.0308,0.0312,0.0331,0.0337,0.0269,0.0269,0.0269,0.027,0,-0.0115,-0.0107,-0.0108,-0.0095,-0.0084,-0.0082,-0.0043,-0.0024,0.0006,0.0039,0.0084,0.0137,0.0179,0.0206,0.0231,0.028,0.0279,0.0292,0.0304,0.0314,0.0333,0.034,0.0268,0.0268,0.0269,0.0269,0,0,-0.0154,-0.0134,-0.0137,-0.0147,-0.0113,-0.0113,-0.0089,-0.0057,-0.0044,0.0013,0.0034,0.0114,0.0153,0.0181,0.0227,0.028,0.0325,0.0298,0.03,0.0312,0.0398,0.0406,0.0414,0.0344,0.0345,0.0346,0.0396,0,-0.0196,-0.0221,-0.0195,-0.0219,-0.0229,-0.0181,-0.0166,-0.0126,-0.0081,-0.0045,0.0046,0.0079,0.0141,0.0159,0.0226,0.0296,0.0343,0.0309,0.039,0.0392,0.0395,0.0422,0.041,0.0455,0.0403,0.0404,0.0405,0,-0.024,-0.025,-0.0282,-0.0283,-0.0284,-0.0285,-0.0258,-0.0241,-0.0159,-0.0124,-0.0051,0.0009,0.0104,0.0143,0.0284,0.0257,0.0324,0.0384,0.0387,0.0408,0.0413,0.044,0.0469,0.0416,0.0415,0.0414,0.0413,0,-0.0298,-0.0314,-0.0343,-0.0344,-0.033,-0.0334,-0.0323,-0.0263,-0.0255,-0.0176,-0.016,-0.0038,0.0011,0.0127,0.0264,0.0269,0.0407,0.0425,0.0495,0.0495,0.0509,0.0508,0.0516,0.0515,0.0515,0.0515,0.0515,0,-0.0347,-0.0373,-0.0373,-0.0391,-0.0431,-0.0397,-0.0418,-0.0383,-0.0335,-0.032,-0.0209,-0.0166,0.0011,0.0115,0.024,0.0389,0.0388,0.0501,0.0518,0.0499,0.0497,0.0484,0.0479,0.0517,0.0517,0.0516,0.0516,0,-0.0392,-0.0394,-0.0436,-0.0446,-0.0459,-0.0486,-0.05,-0.0505,-0.0448,-0.0427,-0.0409,-0.0265,-0.0113,0.0053,0.0239,0.0346,0.0488,0.0533,0.049,0.0502,0.0552,0.0546,0.0622,0.0622,0.0623,0.0624,0.0624,0,-0.0418,-0.0438,-0.0487,-0.0533,-0.0541,-0.0578,-0.0601,-0.0568,-0.0567,-0.0477,-0.0466,-0.0324,-0.019,0.008,0.0285,0.049,0.0501,0.0578,0.0601,0.0558,0.0567,0.056,0.0553,0.0604,0.0604,0.0604,0.0605,0,-0.0465,-0.0476,-0.0519,-0.0608,-0.0659,-0.0701,-0.0723,-0.0739,-0.0679,-0.062,-0.0507,-0.0393,-0.0135,0.0116,0.0359,0.0478,0.0549,0.059,0.0569,0.0576,0.0546,0.0552,0.0546,0.0607,0.0607,0.0607,0.0607,0.0606,-0.0511,-0.0553,-0.0616,-0.0693,-0.0761,-0.08,-0.0815,-0.0797,-0.0763,-0.064,-0.0537,-0.0325,-0.0112,0.0267,0.0436,0.0586,0.0594,0.0648,0.0645,0.0643,0.063,0.0602,0.067,0.067,0.067,0.0671,0.0671,0,-0.0571,-0.0616,-0.0697,-0.079,-0.0856,-0.0866,-0.088,-0.0843,-0.0765,-0.0624,-0.0464,-0.02,0.0064,0.027,0.0519,0.0665,0.0657,0.068,0.0652,0.0649,0.0647,0.0632,0.0674,0.0674,0.0675,0.0675,0,0,-0.0609,-0.0692,-0.0719,-0.0842,-0.0904,-0.094,-0.0931,-0.0835,-0.0716,-0.0537,-0.0368,-0.0163,0.0088,0.0267,0.0447,0.057,0.0569,0.0575,0.056,0.0503,0.0499,0.0618,0.0591,0,0,0,0,0]}],[{"header":{"parameterUnit":"m.s-1","parameterCategory":2,"la1":30.2991,"la2":30.254,"lo1":-89.0895,"lo2":-89.0444,"dy":0.0017,"dx":0.0017,"nx":28,"ny":28,"refTime":"2024-05-27T21:00:00:Z","depth":"4","parameterNumber":2,"parameterNumberName":"U-component_of_CURRENTS"},"data":[0,0,0,0,0,0,0,0,0,0,0,0,0,0,0,0,0,0,0,0,0,0,0,0,0,0,0,0,0,0,0,0,0,0,0,0,0,0,0,0,0,0,0,0,0,0,0,0,0,0,0,0,0,0,0,0,0,0,-0.1128,-0.1128,0,-0.1187,-0.1188,-0.1188,-0.1243,-0.1244,-0.1244,-0.1245,-0.1277,-0.1278,-0.1278,0,0,0,0,0,0,0,0,0,0,0,0,0,-0.1042,-0.1043,-0.1127,-0.1128,-0.1129,-0.1187,-0.1188,-0.1189,-0.1243,-0.1244,-0.1245,-0.1245,-0.1277,-0.1278,-0.1278,0,0,0,0,0,0,0,0,0,0,0,0,0,-0.1087,-0.1044,-0.1127,-0.1164,-0.1168,-0.1187,-0.1188,-0.1189,-0.1243,-0.1244,-0.1245,-0.1246,-0.1277,-0.1278,-0.1278,-0.1257,0,0,-0.1279,-0.1279,0,0,0,0,0,0,0,0,-0.1085,-0.109,-0.1158,-0.1161,-0.1166,-0.121,-0.117,-0.1211,-0.1242,-0.1213,-0.1245,-0.1246,-0.1252,-0.1254,-0.1262,-0.1259,-0.126,-0.1279,-0.1279,-0.1279,-0.1279,0,0,0,0,0,0,0,-0.1082,-0.1088,-0.115,-0.1158,-0.1163,-0.1171,-0.1179,-0.1178,-0.1224,-0.1216,-0.122,-0.1228,-0.1254,-0.1262,-0.1263,-0.1261,-0.1279,-0.1279,-0.1279,-0.1279,-0.1326,-0.1327,0,0,0,0,0,0,-0.1076,-0.1085,-0.1148,-0.1152,-0.1128,-0.1172,-0.118,-0.1194,-0.1225,-0.1232,-0.1227,-0.123,-0.1261,-0.1263,-0.1265,-0.1319,-0.1279,-0.1279,-0.1279,-0.1325,-0.1327,-0.1328,0,0,0,0,0,0,-0.1074,-0.1081,-0.1146,-0.112,-0.1129,-0.1172,-0.1187,-0.1194,-0.122,-0.1234,-0.124,-0.1247,-0.1262,-0.1264,-0.1284,-0.1318,-0.1279,-0.1279,-0.1324,-0.1326,-0.1327,-0.1378,0,0,0,0,0,0,-0.1071,-0.108,-0.1097,-0.112,-0.1131,-0.1168,-0.1186,-0.1195,-0.1222,-0.1228,-0.1252,-0.1256,-0.1263,-0.1283,-0.1284,-0.1317,-0.128,-0.1322,-0.1325,-0.1327,-0.1375,-0.1381,-0.1387,0,0,0,0,0,-0.1068,-0.1084,-0.1097,-0.1105,-0.1149,-0.1169,-0.1175,-0.1208,-0.1222,-0.1234,-0.1255,-0.1256,-0.1298,-0.1284,-0.1284,-0.1319,-0.1321,-0.1324,-0.1326,-0.1372,-0.138,-0.1386,0,0,0,0,0,0,-0.1058,-0.1091,-0.1107,-0.1133,-0.1154,-0.1179,-0.1194,-0.1212,-0.1238,-0.1247,-0.126,-0.1265,-0.1296,-0.1295,-0.1279,-0.1339,-0.1313,-0.1316,-0.1348,-0.1355,-0.1361,-0.1362,-0.128,0,0,0,0,0,-0.1061,-0.1082,-0.111,-0.1131,-0.114,-0.1167,-0.1183,-0.1204,-0.1226,-0.124,-0.1259,-0.1281,-0.1302,-0.1318,-0.1329,-0.1353,-0.1348,-0.1379,-0.1385,-0.139,-0.1391,-0.1413,-0.142,-0.1336,-0.1336,-0.1336,0,0,-0.1062,-0.1084,-0.1097,-0.113,-0.1147,-0.117,-0.118,-0.1204,-0.1235,-0.1236,-0.1281,-0.1294,-0.1311,-0.1347,-0.1362,-0.1354,-0.1411,-0.1393,-0.1397,-0.1396,-0.1416,-0.1424,-0.1431,-0.1338,-0.1337,-0.1337,0,0,-0.1064,-0.1092,-0.1106,-0.1126,-0.1156,-0.1177,-0.1186,-0.1217,-0.1245,-0.1282,-0.1297,-0.1329,-0.136,-0.1385,-0.1401,-0.144,-0.1435,-0.1451,-0.149,-0.1511,-0.1518,-0.1524,-0.1526,-0.1532,-0.1462,-0.1462,-0.1462,0,-0.1066,-0.109,-0.1113,-0.1131,-0.1153,-0.1181,-0.1202,-0.1232,-0.1272,-0.1298,-0.1305,-0.1371,-0.1382,-0.1434,-0.1458,-0.1454,-0.1458,-0.1463,-0.1519,-0.1525,-0.153,-0.1531,-0.1537,-0.1465,-0.1465,-0.1464,-0.1464,0,-0.1073,-0.11,-0.1107,-0.1146,-0.1174,-0.1192,-0.1236,-0.1274,-0.1311,-0.1343,-0.1401,-0.1422,-0.1466,-0.1481,-0.1485,-0.1538,-0.1525,-0.1517,-0.15,-0.1542,-0.154,-0.1545,-0.1469,-0.1468,-0.1467,-0.1466,0,0,-0.1051,-0.1102,-0.1106,-0.113,-0.1183,-0.1205,-0.1264,-0.1319,-0.1371,-0.1412,-0.1473,-0.1517,-0.1532,-0.1549,-0.1561,-0.1587,-0.1629,-0.1577,-0.1577,-0.1578,-0.1669,-0.1545,-0.1539,-0.1636,-0.1638,-0.1639,-0.1651,0,-0.1047,-0.1077,-0.1114,-0.1159,-0.1177,-0.1237,-0.1296,-0.1358,-0.1414,-0.148,-0.1515,-0.1569,-0.1558,-0.1591,-0.1614,-0.1627,-0.1646,-0.1626,-0.163,-0.1629,-0.1514,-0.1542,-0.1643,-0.1655,-0.1656,-0.1657,-0.1658,0,-0.1033,-0.106,-0.1093,-0.1174,-0.1191,-0.1235,-0.1338,-0.1391,-0.1488,-0.1539,-0.1595,-0.1624,-0.1674,-0.1657,-0.1694,-0.1685,-0.168,-0.1682,-0.1683,-0.1552,-0.1515,-0.1606,-0.1667,-0.1666,-0.1665,-0.1665,-0.1664,0,-0.0985,-0.1047,-0.1074,-0.1096,-0.1191,-0.1238,-0.1299,-0.1404,-0.1463,-0.1568,-0.1621,-0.1681,-0.1713,-0.1729,-0.1726,-0.1723,-0.1752,-0.1746,-0.1626,-0.1617,-0.1703,-0.1696,-0.1765,-0.1765,-0.1765,-0.1765,-0.1765,0,-0.0952,-0.0979,-0.1057,-0.1072,-0.1137,-0.1213,-0.13,-0.138,-0.149,-0.155,-0.1634,-0.1676,-0.1734,-0.1754,-0.1748,-0.1691,-0.1766,-0.163,-0.1613,-0.1723,-0.1719,-0.1706,-0.1699,-0.1765,-0.1765,-0.1765,-0.1765,0,-0.0883,-0.0933,-0.0974,-0.1072,-0.111,-0.1153,-0.1287,-0.1345,-0.1463,-0.1543,-0.1576,-0.168,-0.1698,-0.1731,-0.1754,-0.1696,-0.1673,-0.1633,-0.1742,-0.1732,-0.1522,-0.1518,-0.1507,-0.1503,-0.15,-0.1497,-0.1494,0,-0.0848,-0.0855,-0.0951,-0.0983,-0.1028,-0.111,-0.1169,-0.131,-0.1363,-0.1519,-0.1534,-0.1609,-0.1654,-0.1585,-0.1631,-0.1608,-0.1585,-0.1565,-0.1547,-0.1511,-0.1497,-0.1498,-0.1499,-0.1488,-0.1487,-0.1486,-0.1486,0,-0.078,-0.0815,-0.0845,-0.0903,-0.0964,-0.1031,-0.1117,-0.1154,-0.1301,-0.1421,-0.1457,-0.1479,-0.1493,-0.1501,-0.1489,-0.1472,-0.1579,-0.1527,-0.1534,-0.1517,-0.1488,-0.1477,-0.1482,-0.1473,-0.1475,-0.1476,-0.1477,0,-0.0729,-0.073,-0.0771,-0.0817,-0.0884,-0.0923,-0.0991,-0.1052,-0.1128,-0.1302,-0.13,-0.1384,-0.1469,-0.1428,-0.1419,-0.1392,-0.1372,-0.1328,-0.1346,-0.136,-0.1304,-0.1244,-0.1138,0,0,0,0,0,-0.0673,-0.0665,-0.0691,-0.0737,-0.0791,-0.0835,-0.0943,-0.1014,-0.1154,-0.114,-0.1225,-0.1236,-0.1244,-0.1284,-0.1223,-0.1342,-0.1369,-0.1265,-0.1325,-0.1404,-0.1418,-0.1366,0,0,0,0,0,0,-0.0643,-0.065,-0.0655,-0.0649,-0.0664,-0.0721,-0.0785,-0.0881,-0.0887,-0.1031,-0.1035,-0.1145,-0.1159,-0.1249,-0.1191,-0.1202,-0.1211,-0.1321,-0.1318,-0.1396,-0.1409,-0.142,-0.1371,0,0,0,0,0]},{"header":{"parameterUnit":"m.s-1","parameterCategory":2,"la1":30.2991,"la2":30.254,"lo1":-89.0895,"lo2":-89.0444,"dy":0.0017,"dx":0.0017,"nx":28,"ny":28,"refTime":"2024-05-27T21:00:00:Z","depth":"4","parameterNumber":3,"parameterNumberName":"V-component_of_CURRENTS"},"data":[0,0,0,0,0,0,0,0,0,0,0,0,0,0,0,0,0,0,0,0,0,0,0,0,0,0,0,0,0,0,0,0,0,0,0,0,0,0,0,0,0,0,0,0,0,0,0,0,0,0,0,0,0,0,0,0,0,0,0.013,0.013,0,0.0157,0.0157,0.0157,0.0173,0.0173,0.0174,0.0174,0.0184,0.0184,0.0184,0,0,0,0,0,0,0,0,0,0,0,0,0,0.0052,0.0054,0.013,0.013,0.0131,0.0157,0.0157,0.0157,0.0173,0.0173,0.0174,0.0174,0.0184,0.0184,0.0184,0,0,0,0,0,0,0,0,0,0,0,0,0,0.0082,0.0054,0.013,0.0143,0.0145,0.0157,0.0157,0.0157,0.0173,0.0173,0.0174,0.0174,0.0184,0.0184,0.0184,0.0177,0,0,0.0184,0.0184,0,0,0,0,0,0,0,0,0.008,0.0084,0.0141,0.0142,0.0144,0.0163,0.0133,0.0164,0.0173,0.016,0.0174,0.0174,0.0176,0.0177,0.0179,0.0177,0.0178,0.0184,0.0184,0.0184,0.0184,0,0,0,0,0,0,0,0.0078,0.0083,0.0139,0.0141,0.0143,0.0134,0.0139,0.0139,0.0164,0.0162,0.0163,0.0169,0.0177,0.0179,0.0179,0.0178,0.0184,0.0184,0.0184,0.0184,0.0183,0.0183,0,0,0,0,0,0,0.008,0.0082,0.0138,0.014,0.0114,0.0136,0.0141,0.0155,0.0165,0.0167,0.0169,0.017,0.0179,0.0179,0.018,0.0171,0.0184,0.0184,0.0184,0.0183,0.0183,0.0183,0,0,0,0,0,0,0.0079,0.0085,0.0137,0.0112,0.0118,0.0137,0.0153,0.0156,0.016,0.0171,0.0172,0.017,0.0179,0.018,0.0174,0.0172,0.0184,0.0184,0.0183,0.0183,0.0183,0.0154,0,0,0,0,0,0,0.0076,0.0085,0.0093,0.0112,0.012,0.0132,0.0153,0.0156,0.0164,0.0165,0.0173,0.0174,0.0179,0.0174,0.0175,0.0172,0.0184,0.0183,0.0183,0.0183,0.0155,0.0153,0.0152,0,0,0,0,0,0.0074,0.0081,0.0093,0.01,0.0131,0.0131,0.0133,0.0147,0.0164,0.0154,0.0165,0.0174,0.0174,0.0174,0.0174,0.0172,0.0183,0.0183,0.0183,0.0156,0.0154,0.0152,0,0,0,0,0,0,0.0051,0.0084,0.0098,0.0115,0.0118,0.0134,0.0134,0.0146,0.0148,0.0153,0.0167,0.0167,0.0161,0.0171,0.0171,0.0172,0.0183,0.0182,0.0163,0.016,0.0158,0.0157,0.0184,0,0,0,0,0,0.0051,0.0065,0.0086,0.0097,0.0102,0.0119,0.0122,0.0129,0.0137,0.0139,0.0146,0.0157,0.0161,0.0164,0.0164,0.0163,0.0191,0.0164,0.0162,0.016,0.0161,0.0221,0.0225,0.0182,0.0182,0.0182,0,0,0.0046,0.0065,0.0074,0.0092,0.0101,0.009,0.0121,0.0121,0.0112,0.0139,0.0129,0.0144,0.0157,0.0153,0.0153,0.0162,0.0183,0.016,0.0158,0.016,0.0221,0.0226,0.023,0.0182,0.0182,0.0182,0,0,0.0026,0.0059,0.0055,0.0054,0.0063,0.0072,0.0071,0.0084,0.0091,0.0082,0.0105,0.0123,0.0118,0.0138,0.0146,0.0135,0.0166,0.0134,0.0128,0.0186,0.0191,0.0195,0.0217,0.0223,0.0139,0.0139,0.0139,0,0.0016,0.0018,0.005,0.0034,0.003,0.0061,0.004,0.0049,0.0055,0.0067,0.0071,0.0103,0.0113,0.0134,0.0128,0.0132,0.0159,0.0134,0.0185,0.019,0.0195,0.0216,0.0224,0.0138,0.0138,0.0138,0.0138,0,-0.0015,-0.0019,-0.0023,-0.0028,-0.003,-0.0042,-0.0027,-0.0022,-0.0004,0.0013,0.0035,0.0062,0.0088,0.0095,0.0104,0.0144,0.0148,0.0172,0.0192,0.0198,0.0219,0.0227,0.0136,0.0136,0.0137,0.0137,0,0,-0.0027,-0.0042,-0.0045,-0.0064,-0.0064,-0.0071,-0.0076,-0.0066,-0.0055,-0.0033,-0.0011,0.0013,0.0053,0.0066,0.0098,0.0148,0.0196,0.0171,0.0174,0.0192,0.0303,0.0278,0.0285,0.0235,0.0237,0.0238,0.0296,0,-0.0065,-0.0107,-0.0102,-0.0146,-0.0166,-0.0144,-0.0151,-0.0134,-0.0105,-0.0078,-0.0016,0.0008,0.0036,0.0056,0.0112,0.0175,0.022,0.0176,0.0294,0.0297,0.0276,0.0295,0.0244,0.0303,0.0305,0.0306,0.0307,0,-0.0099,-0.0124,-0.0173,-0.0201,-0.0205,-0.0224,-0.0211,-0.0216,-0.016,-0.0133,-0.0075,-0.0025,0.0044,0.0072,0.0195,0.0168,0.0228,0.0281,0.0286,0.0281,0.0289,0.0302,0.0323,0.0322,0.0321,0.0319,0.0319,0,-0.0125,-0.0172,-0.0211,-0.0225,-0.0249,-0.0258,-0.0263,-0.0227,-0.0224,-0.0158,-0.0136,-0.0039,0.0006,0.011,0.0209,0.0211,0.0344,0.0364,0.0397,0.0395,0.0411,0.0407,0.0457,0.0456,0.0456,0.0456,0.0456,0,-0.0161,-0.0197,-0.0227,-0.0252,-0.0295,-0.0292,-0.0311,-0.0294,-0.0261,-0.0251,-0.0164,-0.0123,0.0023,0.0114,0.0208,0.0319,0.0347,0.0397,0.0418,0.0393,0.0386,0.0416,0.0411,0.0458,0.0458,0.0457,0.0457,0,-0.0184,-0.0206,-0.026,-0.0296,-0.0312,-0.0339,-0.0363,-0.0366,-0.0329,-0.0309,-0.0291,-0.0178,-0.0053,0.0077,0.0242,0.0306,0.0421,0.0451,0.0388,0.0404,0.043,0.0422,0.0502,0.0501,0.0501,0.0501,0.0501,0,-0.0198,-0.0227,-0.0294,-0.033,-0.0352,-0.039,-0.0413,-0.0402,-0.0399,-0.0341,-0.0327,-0.021,-0.0122,0.009,0.0226,0.0399,0.0423,0.0465,0.0475,0.0427,0.0439,0.0432,0.0425,0.0501,0.0501,0.0501,0.0501,0,-0.0225,-0.0248,-0.029,-0.0368,-0.041,-0.0459,-0.0484,-0.0489,-0.0464,-0.0434,-0.0339,-0.022,-0.0083,0.0091,0.0217,0.0343,0.0433,0.0464,0.0466,0.0476,0.0427,0.0438,0.0431,0.05,0.05,0.05,0.05,0,-0.0238,-0.0273,-0.0329,-0.0398,-0.0459,-0.0507,-0.0521,-0.0503,-0.0495,-0.042,-0.0388,-0.0229,-0.0127,0.0061,0.0181,0.0299,0.0335,0.0367,0.0375,0.0377,0.0324,0.0243,0.0281,0,0,0,0,0,-0.0245,-0.0288,-0.0357,-0.0432,-0.0493,-0.0526,-0.0558,-0.0556,-0.0528,-0.0466,-0.0424,-0.029,-0.0086,0.0013,0.013,0.0165,0.0337,0.0302,0.0372,0.0497,0.0498,0.0455,0,0,0,0,0,0,-0.0253,-0.031,-0.0356,-0.0445,-0.0495,-0.0557,-0.0577,-0.0563,-0.0513,-0.0463,-0.0343,-0.0271,-0.0064,-0.0145,0.0134,0.017,0.0225,0.0407,0.0409,0.0497,0.0498,0.0498,0.0454,0,0,0,0,0]}]]